Back to catalog

ANIK E2

AliveCommunicationsGEO
NORAD 21222·PAYLOAD·🇨🇦 Canada

Launched Apr 4, 1991 from Guiana Space Centre

Loading…

TLE

FreshSource: Space-Track

Epoch: Sep 14, 2026, 05:07 UTC

1 21222U 91026A   26257.21326947 -.00000205  00000-0  00000-0 0  9991
2 21222  14.1453  11.7184 0003753  46.2812 311.3831  0.99129703117944

Track ANIK E2 in real time with AllMySat

Download on the App Store